[[{"header":{"parameterUnit":"m.s-1","parameterCategory":1,"la1":30.2991,"la2":30.254,"lo1":-89.0895,"lo2":-89.0444,"dy":0.0017,"dx":0.0017,"nx":28,"ny":28,"refTime":"2025-06-05T21:00:00:Z","depth":0,"parameterNumber":2,"parameterNumberName":"U-component_of_WINDS"},"data":[0,0,0,0,0,0,0,0,0,0,0,0,0,0,0,0,0,0,0,0,0,0,0,0,0,0,0,0,0,0,0,0,0,0,0,0,0,0,0,0,0,0,0,0,0,0,0,0,0,0,0,0,0,0,0,0,0,0,0.821,0.8212,0,0.8388,0.839,0.8392,0.8471,0.8471,0.8471,0.8471,0.8653,0.8658,0.8663,0,0,0,0,0,0,0,0,0,0,0,0,0,0.7938,0.7943,0.821,0.8212,0.8214,0.8387,0.839,0.8392,0.8471,0.8471,0.8471,0.8471,0.8651,0.8657,0.8663,0,0,0,0,0,0,0,0,0,0,0,0,0,0.808,0.7944,0.8209,0.8275,0.8282,0.8387,0.839,0.8393,0.8471,0.8471,0.8471,0.847,0.8649,0.8656,0.8664,0.8717,0,0,0.8687,0.869,0,0,0,0,0,0,0,0,0.8072,0.809,0.8263,0.827,0.8279,0.8407,0.8361,0.8502,0.8471,0.84,0.8471,0.847,0.8571,0.8585,0.8619,0.8726,0.8733,0.8688,0.8692,0.8696,0.8698,0,0,0,0,0,0,0,0.8062,0.8083,0.828,0.8265,0.8275,0.8295,0.8315,0.8388,0.8485,0.8406,0.8412,0.8432,0.8576,0.8612,0.8624,0.8736,0.8688,0.8694,0.8699,0.8702,0.8895,0.8896,0,0,0,0,0,0,0.8042,0.8074,0.8275,0.8286,0.8173,0.83,0.8322,0.8366,0.8484,0.8502,0.8432,0.8435,0.8599,0.8615,0.8631,0.8701,0.8696,0.8703,0.8707,0.8895,0.8896,0.8896,0,0,0,0,0,0,0.8036,0.8059,0.8267,0.8182,0.821,0.8305,0.8354,0.837,0.8406,0.8504,0.8522,0.8451,0.8599,0.862,0.8695,0.8709,0.8706,0.8713,0.8894,0.8895,0.8896,0.8842,0,0,0,0,0,0,0.8027,0.8056,0.8077,0.8182,0.8214,0.8329,0.8355,0.8374,0.8419,0.8425,0.8527,0.8544,0.8601,0.8683,0.8703,0.8719,0.8719,0.8893,0.8895,0.8896,0.8843,0.8841,0.8839,0,0,0,0,0,0.8017,0.8055,0.8078,0.8102,0.8243,0.8329,0.8348,0.8413,0.842,0.8442,0.8505,0.854,0.8704,0.869,0.8713,0.8732,0.8893,0.8894,0.8896,0.8844,0.8841,0.8839,0,0,0,0,0,0,0.795,0.807,0.8097,0.8169,0.8238,0.8343,0.8373,0.8408,0.8477,0.8479,0.8557,0.8579,0.8647,0.8697,0.868,0.8789,0.8801,0.8807,0.8755,0.8753,0.8751,0.8738,0.8725,0,0,0,0,0,0.7944,0.8004,0.8106,0.816,0.8193,0.8276,0.8317,0.8361,0.8436,0.8465,0.8534,0.8605,0.8673,0.8716,0.8783,0.885,0.8874,0.8874,0.8872,0.887,0.8875,0.8914,0.8916,0.8901,0.8901,0.8901,0,0,0.7931,0.8004,0.8037,0.8148,0.8207,0.8268,0.8301,0.8364,0.841,0.8475,0.855,0.8602,0.8687,0.8758,0.8793,0.8802,0.8884,0.8872,0.887,0.8876,0.8916,0.8917,0.8918,0.8902,0.8901,0.8901,0,0,0.7939,0.8,0.8053,0.8111,0.8199,0.8255,0.8267,0.8366,0.8403,0.848,0.853,0.8585,0.87,0.8758,0.8803,0.8833,0.8868,0.8852,0.8843,0.888,0.8882,0.8883,0.8894,0.8897,0.8856,0.8856,0.8856,0,0.7912,0.8006,0.8075,0.8135,0.8182,0.8244,0.8297,0.835,0.8456,0.8487,0.8495,0.864,0.8702,0.8788,0.8795,0.8829,0.8845,0.8842,0.8876,0.8878,0.888,0.8892,0.8896,0.8854,0.8854,0.8854,0.8855,0,0.7969,0.8033,0.8065,0.8166,0.8216,0.8273,0.8349,0.8392,0.8432,0.8486,0.8563,0.8638,0.8722,0.8746,0.8785,0.8837,0.884,0.8861,0.8875,0.8878,0.889,0.8895,0.885,0.8851,0.8852,0.8853,0,0,0.7941,0.8078,0.8089,0.8135,0.8237,0.8289,0.8347,0.843,0.8465,0.8536,0.8587,0.8683,0.8702,0.8753,0.8799,0.8832,0.8851,0.8849,0.8852,0.8847,0.8914,0.8898,0.8902,0.8874,0.8876,0.8876,0.8907,0,0.7963,0.8072,0.8135,0.8218,0.8279,0.8338,0.8389,0.8457,0.8509,0.8568,0.8625,0.8692,0.8713,0.8743,0.8779,0.8841,0.8865,0.884,0.8923,0.8926,0.8901,0.8908,0.8892,0.8917,0.8912,0.8913,0.8913,0,0.8005,0.8074,0.8163,0.8259,0.8286,0.8331,0.8412,0.8467,0.8545,0.8581,0.8636,0.8682,0.8747,0.8755,0.8845,0.8826,0.8864,0.8899,0.8902,0.8913,0.892,0.8919,0.8926,0.893,0.8921,0.8921,0.892,0,0.7975,0.8091,0.816,0.8198,0.831,0.8341,0.8389,0.8467,0.8512,0.8582,0.8613,0.8689,0.8731,0.8789,0.8854,0.8854,0.8938,0.8951,0.8969,0.8967,0.8985,0.8983,0.8998,0.9008,0.9008,0.9008,0.9008,0,0.7995,0.8047,0.8148,0.819,0.825,0.8322,0.8379,0.8432,0.8501,0.8554,0.861,0.8658,0.8742,0.88,0.8852,0.8919,0.8937,0.8968,0.8981,0.8963,0.8959,0.899,0.899,0.9009,0.9009,0.9008,0.9008,0,0.7972,0.8043,0.8121,0.8221,0.8248,0.8287,0.8373,0.8416,0.8471,0.8537,0.8557,0.8643,0.8715,0.8786,0.8883,0.8917,0.8984,0.9001,0.8957,0.8965,0.8979,0.8977,0.9015,0.9024,0.9026,0.9026,0.9026,0,0.798,0.8022,0.8127,0.8166,0.8214,0.8277,0.8323,0.8395,0.8441,0.8533,0.8565,0.8641,0.8706,0.8819,0.889,0.8964,0.8984,0.8992,0.8996,0.8977,0.8985,0.8982,0.8987,0.899,0.899,0.899,0.8989,0,0.7987,0.802,0.8085,0.8162,0.8216,0.828,0.8346,0.8375,0.846,0.8509,0.8583,0.8633,0.8732,0.8808,0.889,0.894,0.8979,0.8987,0.8996,0.8979,0.8952,0.8967,0.8953,0.8987,0.8987,0.8987,0.8987,0.8987,0.7981,0.8021,0.8101,0.8171,0.8228,0.8289,0.8334,0.8394,0.8458,0.8544,0.8582,0.8657,0.8735,0.885,0.8899,0.8958,0.8968,0.898,0.8983,0.8985,0.8981,0.8941,0.8974,0.8974,0.8974,0.8974,0.8974,0,0.7991,0.8045,0.811,0.82,0.8256,0.8287,0.8362,0.8406,0.8471,0.854,0.8603,0.8688,0.8761,0.8838,0.8915,0.8948,0.8968,0.8966,0.8965,0.8976,0.8968,0.8953,0.8949,0.8949,0.8949,0.8949,0.8949,0.8949,0.8003,0.8072,0.8114,0.8212,0.8266,0.834,0.838,0.8436,0.8491,0.8584,0.8645,0.8694,0.8766,0.8849,0.8917,0.8938,0.8964,0.8957,0.8983,0.8974,0.8976,0.8978,0.8964,0.8962,0.8962,0.8986,0.8986,0.8986]},{"header":{"parameterUnit":"m.s-1","parameterCategory":1,"la1":30.2991,"la2":30.254,"lo1":-89.0895,"lo2":-89.0444,"dy":0.0017,"dx":0.0017,"nx":28,"ny":28,"refTime":"2025-06-05T21:00:00:Z","depth":0,"parameterNumber":3,"parameterNumberName":"V-component_of_WINDS"},"data":[0,0,0,0,0,0,0,0,0,0,0,0,0,0,0,0,0,0,0,0,0,0,0,0,0,0,0,0,0,0,0,0,0,0,0,0,0,0,0,0,0,0,0,0,0,0,0,0,0,0,0,0,0,0,0,0,0,0,4.2254,4.2254,0,4.2244,4.2244,4.2244,4.2199,4.2198,4.2197,4.2196,4.2187,4.2187,4.2188,0,0,0,0,0,0,0,0,0,0,0,0,0,4.2234,4.2235,4.2254,4.2254,4.2254,4.2244,4.2244,4.2244,4.2199,4.2198,4.2197,4.2195,4.2186,4.2187,4.2188,0,0,0,0,0,0,0,0,0,0,0,0,0,4.2235,4.2235,4.2254,4.223,4.2228,4.2244,4.2244,4.2244,4.2199,4.2198,4.2196,4.2195,4.2186,4.2187,4.2188,4.2227,0,0,4.2192,4.2192,0,0,0,0,0,0,0,0,4.2235,4.2236,4.2234,4.2232,4.2229,4.2221,4.2234,4.2238,4.22,4.221,4.2196,4.2194,4.2199,4.2199,4.2201,4.2227,4.2226,4.2192,4.2192,4.2193,4.2193,0,0,0,0,0,0,0,4.2235,4.2236,4.225,4.2234,4.2231,4.222,4.2219,4.2234,4.2214,4.2209,4.2206,4.2205,4.2198,4.22,4.2201,4.2226,4.2192,4.2193,4.2193,4.2194,4.2283,4.2285,0,0,0,0,0,0,4.2238,4.2237,4.225,4.225,4.2228,4.2222,4.222,4.2225,4.2214,4.221,4.2207,4.2203,4.2199,4.2199,4.22,4.2245,4.2193,4.2194,4.2195,4.2282,4.2284,4.2285,0,0,0,0,0,0,4.2238,4.224,4.2251,4.2242,4.2243,4.2224,4.223,4.2226,4.2228,4.2212,4.2208,4.2213,4.2198,4.2198,4.2221,4.2244,4.2194,4.2195,4.228,4.2282,4.2285,4.2334,0,0,0,0,0,0,4.2238,4.224,4.2255,4.2243,4.2243,4.2271,4.2232,4.2227,4.223,4.2226,4.2216,4.2213,4.2197,4.2219,4.2222,4.2244,4.2196,4.2277,4.2281,4.2284,4.2331,4.2338,4.2345,0,0,0,0,0,4.2237,4.2269,4.2256,4.2257,4.2261,4.2273,4.2273,4.2253,4.2232,4.2246,4.2236,4.2214,4.2241,4.2222,4.2224,4.2248,4.2276,4.228,4.2283,4.2327,4.2337,4.2345,0,0,0,0,0,0,4.2284,4.2267,4.2252,4.2281,4.2279,4.2265,4.2282,4.2264,4.2267,4.2263,4.2238,4.2237,4.2263,4.2257,4.2236,4.2285,4.2255,4.2259,4.2287,4.2296,4.2303,4.2304,4.2197,0,0,0,0,0,4.2297,4.2308,4.2293,4.232,4.232,4.2302,4.2306,4.2291,4.2288,4.2287,4.2278,4.2276,4.2284,4.229,4.2296,4.233,4.2327,4.2347,4.2354,4.236,4.2364,4.2382,4.2391,4.2298,4.2298,4.2298,0,0,4.2326,4.2318,4.2326,4.2329,4.2326,4.2338,4.2301,4.2315,4.2324,4.2289,4.2309,4.2303,4.2299,4.2327,4.2339,4.2323,4.239,4.2365,4.237,4.2371,4.2387,4.2396,4.2404,4.2301,4.23,4.23,0,0,4.2383,4.2378,4.24,4.2398,4.2393,4.2381,4.2386,4.2376,4.237,4.239,4.2364,4.2375,4.2389,4.2387,4.2388,4.2447,4.2426,4.2449,4.2487,4.2504,4.2512,4.2518,4.2539,4.2547,4.2454,4.2454,4.2454,0,4.2419,4.2436,4.2414,4.243,4.2432,4.2401,4.2423,4.2422,4.242,4.2422,4.2405,4.2423,4.2418,4.2446,4.246,4.2462,4.2467,4.245,4.2512,4.2519,4.2524,4.2544,4.2552,4.2457,4.2456,4.2456,4.2456,0,4.248,4.2492,4.2511,4.2509,4.2514,4.2533,4.2515,4.2522,4.2507,4.2496,4.2518,4.2511,4.2516,4.2521,4.2506,4.2547,4.2537,4.2517,4.2486,4.2536,4.2554,4.2562,4.2461,4.246,4.2459,4.2458,0,0,4.2566,4.2553,4.256,4.2559,4.2552,4.2561,4.2579,4.2584,4.2591,4.2591,4.2605,4.2619,4.26,4.2601,4.2586,4.2601,4.2648,4.2579,4.2578,4.2592,4.2693,4.2708,4.2717,4.2635,4.2636,4.2637,4.2693,0,4.2621,4.2651,4.2632,4.2665,4.2676,4.2647,4.2663,4.266,4.2652,4.266,4.265,4.266,4.2634,4.2635,4.2649,4.2639,4.2668,4.2635,4.2648,4.2649,4.265,4.2726,4.2743,4.2796,4.27,4.2701,4.2702,0,4.2689,4.2692,4.2726,4.2717,4.2721,4.2735,4.2739,4.2747,4.2744,4.2736,4.2739,4.272,4.2737,4.2707,4.2731,4.2709,4.2714,4.271,4.2711,4.2712,4.2678,4.2729,4.2812,4.282,4.2713,4.2712,4.2711,0,4.2748,4.2761,4.2783,4.2783,4.2773,4.2784,4.2781,4.2776,4.278,4.2783,4.2786,4.2791,4.2793,4.2798,4.2781,4.2761,4.2807,4.2776,4.2802,4.2802,4.2813,4.2812,4.2898,4.2816,4.2816,4.2816,4.2815,0,4.2811,4.2833,4.2809,4.2823,4.2847,4.2825,4.285,4.2843,4.284,4.2852,4.2827,4.2839,4.2816,4.2826,4.2813,4.2835,4.2836,4.2831,4.2827,4.2833,4.2834,4.2835,4.2831,4.2818,4.2817,4.2817,4.2817,0,4.2881,4.2866,4.2888,4.2877,4.2875,4.2893,4.2884,4.2897,4.2886,4.2902,4.2904,4.2888,4.2899,4.2882,4.2891,4.2882,4.2913,4.2903,4.2914,4.2911,4.2938,4.2936,4.3027,4.3039,4.295,4.295,4.2951,0,4.2923,4.2939,4.293,4.2936,4.2934,4.2945,4.2949,4.2929,4.2934,4.2933,4.2945,4.2953,4.2959,4.2977,4.2966,4.2972,4.2963,4.2995,4.2964,4.2969,4.2963,4.2963,4.2964,4.3001,4.3002,4.3003,4.3004,0,4.2998,4.2989,4.2996,4.3001,4.3007,4.301,4.3011,4.3017,4.2996,4.3004,4.3014,4.3018,4.3027,4.3035,4.3039,4.3036,4.3017,4.3014,4.302,4.3026,4.3031,4.3029,4.2931,4.3011,4.3011,4.301,4.301,4.3009,4.3055,4.3068,4.3064,4.3073,4.3071,4.3073,4.3084,4.3075,4.3084,4.3089,4.3077,4.309,4.3087,4.309,4.3089,4.3099,4.3085,4.3094,4.3097,4.3099,4.3104,4.303,4.31,4.31,4.3099,4.3099,4.3099,0,4.3128,4.3124,4.3133,4.3135,4.3142,4.3123,4.3124,4.3131,4.3143,4.3142,4.3148,4.316,4.3168,4.3158,4.3165,4.3175,4.3166,4.3177,4.3176,4.3176,4.3116,4.311,4.3184,4.3184,4.3184,4.3184,4.3184,4.3184,4.3168,4.3189,4.3181,4.3202,4.3197,4.321,4.3212,4.3214,4.3213,4.3227,4.3234,4.3227,4.3223,4.3229,4.3236,4.3233,4.3237,4.3251,4.3245,4.3189,4.318,4.3172,4.3166,4.3252,4.3252,4.3304,4.3305,4.3305]}]]